Weather History for Rome Ciampino, Italy

Change the Weather History Date:

Saturday, June 29, 2013

  Actual Average Record
Temperature  
Mean Temperature 66 °F -  
Max Temperature 77 °F 87 °F 98 °F (2006)
Min Temperature 55 °F 63 °F 55 °F (2013)
Cooling Degree Days 1    
Growing Degree Days 16 (Base 50)    
Moisture  
Dew Point 50 °F    
Average Humidity 60    
Maximum Humidity 94    
Minimum Humidity 28    
Precipitation  
Precipitation 0.00 in 0.03 in - ()
Sea Level Pressure  
Sea Level Pressure 29.98 in    
Wind  
Wind Speed 6 mph ()    
Max Wind Speed 15 mph    
Max Gust Speed 25 mph    
Visibility 6.2 miles    
Events      
Averages and records for this station are not official NWS values.
T = Trace of Precipitation, MM = Missing Value Source: Averaged Metar Reports

Daily Weather History Graph

Daily Weather History Graph

Search for Another Location

Airport:

Trip Planner

Search our weather history database for the weather conditions in past years. The results will help you decide how hot, cold, wet, or windy it might be!

Date:

Astronomy

Jun. 29, 2013 Rise Set
Actual Time 5:37 AM CEST 8:48 PM CEST
Civil Twilight 5:03 AM CEST 9:22 PM CEST
Nautical Twilight 4:19 AM CEST 10:06 PM CEST
Astronomical Twilight 3:26 AM CEST 10:59 PM CEST
Moon 12:02 AM CEST (6/29) 12:37 PM CEST (6/29)
Length of Visible Light 16h 19m
Length of Day
15h 11m
Waning Gibbous, 58% of the Moon is Illuminated
Jun 29
Waning Gibbous
Jun 30
Last Quarter
Jul 8
New
Jul 16
First Quarter
Jul 22
Full

Hourly Weather History & Observations

Time (CEST) Temp. Dew Point Humidity Pressure Visibility Wind Dir Wind Speed Gust Speed Precip Events Conditions
12:15 AM 60.8 °F 59.0 °F 94% 29.98 in 6.2 mi North 5.8 mph - N/A   Partly Cloudy
12:45 AM 60.8 °F 57.2 °F 88% 30.01 in 6.2 mi NNE 4.6 mph - N/A   Partly Cloudy
1:15 AM 59.0 °F 57.2 °F 94% 30.01 in 6.2 mi NNE 4.6 mph - N/A   Partly Cloudy
1:45 AM 59.0 °F 57.2 °F 94% 30.01 in 6.2 mi NNE 3.5 mph - N/A   Partly Cloudy
2:15 AM 59.0 °F 55.4 °F 88% 30.01 in 6.2 mi NNE 3.5 mph - N/A   Scattered Clouds
2:45 AM 59.0 °F 55.4 °F 88% 30.01 in 6.2 mi NNE 3.5 mph - N/A   Scattered Clouds
3:15 AM 57.2 °F 55.4 °F 94% 29.98 in 6.2 mi North 4.6 mph - N/A   Partly Cloudy
3:45 AM 57.2 °F 55.4 °F 94% 29.98 in 6.2 mi NE 4.6 mph - N/A   Partly Cloudy
4:15 AM 57.2 °F 55.4 °F 94% 29.98 in 6.2 mi NNE 4.6 mph - N/A   Partly Cloudy
4:45 AM 57.2 °F 55.4 °F 94% 29.98 in - NE 4.6 mph - N/A   Clear
5:15 AM 55.4 °F 53.6 °F 94% 29.98 in - NNE 4.6 mph - N/A   Clear
5:45 AM 55.4 °F 53.6 °F 94% 29.98 in - NE 5.8 mph - N/A   Clear
6:15 AM 55.4 °F 53.6 °F 94% 29.98 in 6.2 mi NNE 4.6 mph - N/A   Partly Cloudy
6:45 AM 55.4 °F 53.6 °F 94% 29.98 in 6.2 mi NNE 4.6 mph - N/A   Partly Cloudy
7:15 AM 57.2 °F 53.6 °F 88% 29.98 in 6.2 mi NNE 5.8 mph - N/A   Partly Cloudy
7:45 AM 57.2 °F 55.4 °F 94% 29.98 in 6.2 mi NE 6.9 mph - N/A   Partly Cloudy
8:15 AM 59.0 °F 55.4 °F 88% 29.98 in 6.2 mi NE 6.9 mph - N/A   Partly Cloudy
8:45 AM 62.6 °F 55.4 °F 77% 29.98 in 6.2 mi NE 5.8 mph - N/A   Partly Cloudy
9:15 AM 62.6 °F 55.4 °F 77% 30.01 in 6.2 mi NNE 6.9 mph - N/A   Partly Cloudy
9:45 AM 64.4 °F 55.4 °F 73% 30.01 in 6.2 mi NNE 5.8 mph - N/A   Partly Cloudy
10:15 AM 66.2 °F 55.4 °F 68% 30.01 in 6.2 mi NE 5.8 mph - N/A   Partly Cloudy
10:45 AM 68.0 °F 53.6 °F 60% 30.01 in 6.2 mi North 6.9 mph - N/A   Partly Cloudy
11:15 AM 68.0 °F 51.8 °F 56% 29.98 in 6.2 mi NNW 9.2 mph - N/A   Partly Cloudy
11:45 AM 69.8 °F 50.0 °F 49% 29.98 in 6.2 mi NNW 8.1 mph - N/A   Partly Cloudy
12:15 PM 71.6 °F 50.0 °F 46% 29.98 in 6.2 mi NNW 9.2 mph - N/A   Scattered Clouds
12:45 PM 73.4 °F 46.4 °F 38% 29.98 in 6.2 mi NNW 8.1 mph - N/A   Scattered Clouds
1:15 PM 75.2 °F 44.6 °F 34% 29.98 in 6.2 mi NNW 9.2 mph - N/A   Scattered Clouds
1:45 PM 75.2 °F 42.8 °F 31% 29.98 in 6.2 mi NNW 9.2 mph - N/A   Scattered Clouds
2:15 PM 75.2 °F 44.6 °F 34% 29.95 in 6.2 mi NW 11.5 mph - N/A   Scattered Clouds
2:45 PM 77.0 °F 44.6 °F 32% 29.95 in 6.2 mi NNW 11.5 mph 23.0 mph N/A   Scattered Clouds
3:15 PM 77.0 °F 44.6 °F 32% 29.95 in 6.2 mi NW 9.2 mph 20.7 mph N/A   Scattered Clouds
3:45 PM 77.0 °F 44.6 °F 32% 29.95 in 6.2 mi North 10.4 mph 25.3 mph N/A   Scattered Clouds
4:15 PM 77.0 °F 44.6 °F 32% 29.95 in 6.2 mi NNW 12.7 mph 24.2 mph N/A   Scattered Clouds
4:45 PM 77.0 °F 42.8 °F 29% 29.95 in 6.2 mi NNW 13.8 mph - N/A   Scattered Clouds
5:15 PM 77.0 °F 42.8 °F 29% 29.95 in 6.2 mi NNW 15.0 mph - N/A   Scattered Clouds
5:45 PM 77.0 °F 41.0 °F 28% 29.95 in 6.2 mi North 15.0 mph - N/A   Scattered Clouds
6:15 PM 77.0 °F 42.8 °F 29% 29.95 in 6.2 mi NNW 13.8 mph - N/A   Scattered Clouds
6:45 PM 77.0 °F 42.8 °F 29% 29.95 in 6.2 mi North 13.8 mph - N/A   Scattered Clouds
7:15 PM 75.2 °F 42.8 °F 31% 29.95 in 6.2 mi North 13.8 mph - N/A   Scattered Clouds
7:45 PM 75.2 °F 42.8 °F 31% 29.95 in 6.2 mi North 13.8 mph - N/A   Scattered Clouds
8:15 PM 73.4 °F 44.6 °F 36% 29.95 in 6.2 mi NNW 13.8 mph - N/A   Scattered Clouds
8:45 PM 73.4 °F 44.6 °F 36% 29.95 in 6.2 mi North 10.4 mph - N/A   Scattered Clouds
9:15 PM 71.6 °F 44.6 °F 38% 29.95 in 6.2 mi NNW 11.5 mph - N/A   Scattered Clouds
9:45 PM 69.8 °F 44.6 °F 40% 29.95 in 6.2 mi North 6.9 mph - N/A   Scattered Clouds
10:15 PM 68.0 °F 42.8 °F 40% 29.98 in 6.2 mi North 4.6 mph - N/A   Scattered Clouds
10:45 PM 68.0 °F 44.6 °F 43% 29.98 in 6.2 mi North 4.6 mph - N/A   Partly Cloudy
11:15 PM 66.2 °F 44.6 °F 46% 29.98 in 6.2 mi North 4.6 mph - N/A   Partly Cloudy
11:45 PM 64.4 °F 44.6 °F 49% 29.98 in 6.2 mi NE 3.5 mph - N/A   Partly Cloudy